Wind_Speed
10 10 9 9 8 8 7 7 7 6 6 6 6 5 4 3 3 3 3 4 4 4 4 4 4 4 4 4 4 5 4 3 2 2 2 2 2 2 3 3 2 2 2
9 9 9 9 8 8 7 7 6 6 6 5 5 5 4 3 3 3 3 3 4 4 4 4 4 4 4 4 4 4 4 3 3 3 2 2 1 1 2 3 3 2 2
8 8 8 9 8 7 7 7 6 6 6 5 5 4 4 3 2 2 2 3 4 4 4 4 4 4 3 3 3 3 3 3 3 2 2 2 2 2 2 2 3 3 3
8 8 8 8 8 7 7 7 6 6 6 5 5 4 4 3 2 2 2 2 2 3 3 2 3 4 4 4 4 3 3 2 3 2 2 2 2 2 2 2 3 2 2
10 9 8 8 8 7 6 6 6 6 5 5 5 4 4 3 2 1 1 1 2 2 2 2 2 2 3 4 4 4 3 2 2 3 2 2 1 2 2 2 3 2 2
11 10 9 9 8 7 7 6 6 6 5 4 4 4 4 3 2 1 1 1 1 2 2 2 2 2 3 4 4 4 3 3 3 3 3 2 2 2 2 2 2 2 1
11 10 10 9 8 7 6 6 6 6 5 4 4 3 3 3 2 1 1 1 0 1 1 1 2 1 2 2 3 3 3 2 2 2 3 3 2 2 2 2 2 3 2
11 10 9 9 8 7 7 6 6 6 6 5 4 4 3 3 2 2 1 1 1 0 1 1 2 2 2 2 3 3 2 2 2 2 2 2 2 3 2 2 2 2 2
11 10 10 9 8 8 7 7 6 5 5 4 4 4 3 3 2 2 1 2 1 1 1 2 2 3 3 3 3 3 3 2 2 2 2 3 2 2 3 2 2 2 2
11 11 10 9 8 8 7 7 6 6 5 5 4 4 3 3 2 2 2 1 1 2 2 3 3 3 4 5 5 5 5 4 4 3 3 3 3 3 3 3 2 2 2
11 11 10 9 9 8 7 6 6 6 6 5 5 5 4 3 3 2 2 1 1 1 2 3 4 4 4 5 5 6 6 5 4 5 5 5 4 4 4 4 3 3 3
12 11 10 9 9 8 8 7 7 7 6 6 6 6 5 4 3 3 2 1 1 2 2 3 4 4 5 6 6 6 6 6 6 5 5 6 5 5 5 5 4 4 4
14 13 12 11 9 9 9 8 7 7 6 6 7 7 6 5 4 3 1 1 1 2 2 3 3 4 5 6 6 7 6 7 7 6 6 7 6 6 6 5 5 5 5
13 12 12 11 11 10 10 10 9 8 7 7 7 7 7 7 5 3 3 2 2 3 3 3 3 4 4 6 7 7 8 7 8 7 7 8 8 7 6 6 6 6 6
13 12 12 11 11 11 10 10 9 9 8 8 8 7 8 7 6 5 4 4 4 3 3 3 4 4 4 5 6 8 8 7 8 8 9 9 8 8 8 8 7 7 6
12 12 12 11 11 11 11 11 10 9 9 8 8 8 8 7 7 6 6 5 5 4 4 4 4 4 5 5 6 7 7 8 9 9 9 9 9 9 9 9 9 8 7
12 12 12 11 11 11 11 11 10 10 9 9 9 8 8 8 8 8 7 6 6 6 5 4 3 3 4 6 6 7 7 8 9 9 9 10 10 10 10 10 10 9 9
12 12 12 12 11 11 11 11 10 10 9 9 9 8 9 9 10 9 8 7 7 6 6 5 4 4 5 5 7 8 8 9 9 9 10 10 11 11 11 11 11 11 11
12 11 11 11 11 11 11 11 10 11 10 9 8 9 9 10 10 9 9 8 7 7 7 6 6 6 5 5 6 8 9 9 10 10 11 11 12 12 12 12 13 13 12
11 11 11 11 11 11 11 11 11 11 10 9 9 10 10 10 10 9 8 8 7 7 7 7 7 7 6 5 5 6 7 8 8 9 10 11 12 12 13 13 13 14 14
10 10 10 11 11 11 11 11 11 11 10 10 11 11 11 12 12 11 9 8 7 7 7 8 8 7 6 6 5 6 6 7 7 7 8 10 11 12 12 13 13 14 15
10 10 10 10 11 11 10 10 10 11 11 11 12 12 12 12 13 12 10 9 8 9 8 8 9 8 7 6 6 6 6 7 7 8 8 9 11 12 13 13 14 14 15
10 10 10 10 11 11 11 10 10 11 12 12 12 12 12 12 13 12 11 10 10 11 10 9 9 9 8 8 8 8 7 7 9 9 10 10 11 11 11 12 13 14 16
10 10 10 10 11 11 12 12 12 12 12 12 12 12 13 13 13 13 13 12 12 12 12 11 11 10 9 9 9 9 9 9 10 10 11 11 12 12 13 13 14 15 16
11 10 11 11 12 12 13 13 14 14 13 13 13 13 13 14 14 13 13 13 14 14 14 13 13 12 11 10 11 11 11 11 11 12 13 13 13 14 14 14 15 16 17
12 12 12 12 13 13 13 14 14 14 13 13 14 14 14 14 14 14 14 15 15 15 15 14 14 14 13 13 13 12 13 13 13 14 15 15 16 16 16 17 17 17 18
Wind_Direction
63 63 65 67 70 70 69 66 66 62 65 75 81 88 93 102 121 128 137 158 163 165 167 167 166 172 173 170 171 172 171 164 141 131 126 115 116 130 132 130 139 140 133
62 62 61 64 68 69 68 67 66 66 66 71 79 81 88 93 106 124 136 154 162 172 178 183 182 189 183 180 179 178 172 167 157 153 143 126 119 140 149 145 138 137 136
59 60 58 62 66 66 67 69 69 68 64 65 70 73 78 84 95 117 136 149 161 174 178 185 185 194 192 193 193 183 168 174 173 175 155 144 150 156 156 154 150 143 138
57 62 61 59 63 62 64 67 68 66 63 60 63 69 69 68 80 124 131 139 153 167 179 184 191 200 193 193 192 179 173 175 186 186 166 153 145 162 172 164 161 160 161
60 61 64 60 60 62 66 66 63 65 62 61 63 62 63 63 74 93 124 157 159 171 183 178 176 181 188 194 191 185 184 183 201 200 171 165 165 170 172 167 171 170 168
60 61 63 62 61 63 64 63 63 65 63 62 59 54 50 53 62 77 101 174 200 204 194 184 184 197 196 196 196 189 189 202 211 204 197 196 180 180 172 165 179 175 177
59 61 62 63 65 63 58 61 57 55 54 53 47 43 41 42 46 45 34 30 280 217 187 202 193 192 188 202 212 210 213 214 210 197 199 209 198 177 168 170 188 190 183
56 57 58 61 64 65 61 59 56 55 52 46 39 31 29 20 11 15 4 335 320 211 237 221 218 221 201 213 220 207 215 237 254 231 221 228 219 205 198 189 170 178 187
53 54 55 61 59 64 63 55 57 58 51 42 36 29 22 11 348 347 326 311 306 278 246 232 222 218 219 234 234 224 218 233 248 235 228 231 227 217 217 204 196 199 211
53 53 56 57 56 59 60 57 56 53 43 35 28 16 7 360 346 324 303 301 293 269 248 248 244 239 234 241 236 224 218 227 245 246 238 233 234 220 213 211 206 203 215
49 50 50 52 57 57 58 59 50 41 39 34 25 15 4 358 350 336 322 312 296 291 269 260 257 247 244 244 236 230 226 234 244 252 244 238 230 221 213 213 214 217 230
45 47 48 49 55 55 52 47 41 37 35 33 30 24 15 15 3 348 336 324 328 323 296 282 265 251 245 244 236 234 234 237 242 252 249 243 230 222 220 222 224 227 233
45 47 48 50 52 49 44 39 35 31 30 31 29 26 23 19 7 5 349 333 334 333 309 285 265 248 249 250 248 242 241 246 243 247 245 238 225 223 228 228 233 238 237
44 46 49 49 46 43 38 34 30 28 27 26 22 21 23 23 13 359 340 345 332 313 296 286 269 261 260 256 251 249 245 243 245 247 246 235 228 231 236 236 239 242 241
39 40 43 46 45 44 39 34 27 23 22 25 21 19 20 19 13 4 7 3 355 335 307 301 293 285 279 267 256 255 255 250 248 250 246 240 235 238 240 240 238 236 239
34 34 35 37 38 37 36 33 28 24 25 24 23 20 18 16 11 8 9 9 4 357 348 329 305 287 281 273 267 265 259 252 249 246 243 242 241 240 242 243 239 239 242
33 30 31 34 34 33 31 28 25 24 24 23 21 18 20 16 12 8 6 1 358 357 353 337 314 295 280 273 266 265 260 255 249 243 242 244 241 240 244 246 242 244 243
31 28 29 29 29 25 24 24 20 17 19 17 13 11 11 11 13 13 6 359 354 351 349 347 322 303 296 278 266 266 262 259 249 243 245 245 241 242 246 248 248 246 249
25 24 23 24 23 19 17 14 13 13 13 9 3 4 8 10 12 7 2 1 357 356 352 338 333 323 314 299 283 271 263 260 256 249 247 246 244 244 247 248 251 252 254
19 19 18 16 15 14 12 8 5 4 7 5 3 1 0 359 360 355 349 351 353 352 350 344 333 334 324 314 295 279 270 266 262 258 255 250 250 252 253 254 255 253 256
10 8 8 6 5 4 2 1 358 356 358 359 358 355 353 352 351 350 343 342 344 344 344 339 335 333 330 322 314 302 284 271 267 269 261 254 254 255 256 261 260 255 255
360 356 357 358 355 353 351 351 350 352 349 347 346 347 347 346 348 348 343 345 349 347 345 341 337 329 321 317 313 307 299 285 278 277 272 265 261 260 259 260 261 259 258
351 347 347 348 344 344 345 344 340 340 337 338 338 339 340 339 340 344 343 343 344 341 339 335 332 326 318 314 307 297 291 289 286 285 285 282 275 272 270 265 262 260 257
345 342 341 339 337 338 338 339 339 334 331 331 331 333 334 333 332 335 336 337 333 329 329 331 331 323 316 312 310 303 293 288 282 282 286 286 280 276 274 271 267 265 264
337 335 332 329 333 333 333 334 334 332 330 330 331 330 327 326 327 329 330 328 324 322 324 324 325 323 318 317 315 310 300 293 286 286 288 287 282 277 275 273 270 270 268
328 328 324 326 329 327 328 330 330 329 328 326 326 326 326 323 321 322 321 320 319 319 318 317 317 318 317 314 313 310 309 302 296 291 288 287 284 280 277 275 271 271 271
Height
5894 5893 5892 5892 5892 5892 5892 5891 5891 5891 5890 5890 5890 5890 5890 5890 5890 5890 5891 5891 5891 5892 5892 5893 5893 5893 5894 5894 5894 5894 5894 5894 5894 5894 5894 5894 5894 5894 5893 5893 5893 5893 5893
5894 5894 5893 5893 5893 5893 5893 5892 5892 5892 5891 5891 5891 5891 5891 5890 5890 5891 5891 5891 5891 5892 5892 5892 5893 5893 5893 5894 5894 5894 5894 5894 5895 5895 5894 5894 5894 5894 5893 5893 5893 5893 5893
5895 5895 5894 5894 5894 5894 5893 5893 5893 5893 5893 5892 5892 5892 5892 5891 5891 5891 5891 5891 5891 5892 5892 5893 5893 5893 5893 5894 5894 5894 5894 5894 5895 5895 5894 5894 5894 5893 5893 5893 5893 5893 5893
5895 5895 5895 5895 5894 5894 5894 5894 5894 5894 5894 5893 5893 5893 5893 5893 5892 5892 5892 5892 5892 5892 5893 5893 5893 5893 5893 5893 5894 5894 5894 5894 5894 5894 5894 5894 5893 5893 5893 5893 5893 5893 5893
5896 5896 5896 5896 5895 5895 5895 5895 5895 5895 5894 5894 5894 5894 5893 5893 5893 5893 5892 5892 5892 5892 5893 5893 5893 5893 5893 5893 5893 5894 5894 5894 5894 5894 5894 5894 5893 5893 5893 5893 5893 5893 5893
5897 5897 5897 5897 5896 5896 5896 5896 5896 5896 5895 5895 5895 5895 5894 5894 5893 5893 5893 5893 5892 5892 5893 5893 5893 5893 5893 5893 5893 5893 5894 5894 5894 5894 5893 5894 5893 5893 5893 5892 5893 5893 5893
5899 5898 5898 5898 5898 5898 5898 5897 5897 5897 5896 5896 5896 5895 5895 5894 5894 5894 5893 5893 5893 5892 5892 5893 5893 5893 5893 5893 5893 5893 5894 5893 5893 5893 5893 5893 5893 5893 5893 5893 5893 5893 5892
5901 5900 5900 5899 5899 5899 5899 5898 5898 5898 5897 5897 5896 5895 5895 5895 5894 5894 5894 5893 5893 5892 5892 5892 5892 5892 5893 5893 5893 5893 5893 5893 5893 5893 5893 5893 5893 5892 5893 5893 5892 5892 5892
5903 5902 5901 5901 5900 5900 5899 5899 5899 5898 5898 5897 5896 5896 5895 5894 5894 5894 5893 5893 5893 5892 5892 5892 5892 5892 5892 5892 5892 5892 5892 5893 5893 5893 5892 5892 5892 5893 5893 5892 5892 5892 5892
5905 5904 5903 5902 5902 5901 5900 5900 5899 5899 5898 5897 5896 5895 5895 5894 5894 5893 5893 5893 5892 5892 5891 5891 5891 5891 5891 5891 5891 5891 5892 5892 5892 5892 5892 5891 5892 5892 5892 5892 5892 5891 5891
5906 5905 5904 5904 5903 5902 5902 5900 5900 5900 5899 5898 5897 5895 5894 5894 5893 5893 5893 5892 5892 5892 5891 5891 5891 5890 5890 5890 5890 5890 5890 5891 5891 5891 5891 5891 5891 5891 5891 5891 5891 5891 5891
5907 5906 5905 5904 5904 5903 5903 5902 5901 5900 5899 5898 5897 5896 5894 5894 5893 5892 5892 5892 5891 5891 5890 5890 5890 5889 5889 5889 5889 5889 5889 5890 5890 5890 5890 5890 5890 5890 5890 5890 5890 5890 5890
5909 5908 5906 5905 5905 5904 5903 5903 5902 5901 5900 5899 5897 5896 5895 5894 5892 5892 5891 5891 5891 5890 5889 5889 5889 5888 5888 5887 5888 5888 5888 5888 5889 5889 5889 5889 5889 5889 5889 5889 5889 5889 5889
5911 5910 5908 5907 5906 5905 5904 5903 5902 5901 5900 5899 5897 5896 5895 5894 5893 5892 5891 5890 5890 5889 5889 5888 5887 5887 5887 5886 5886 5886 5886 5887 5887 5887 5887 5887 5887 5887 5888 5888 5888 5888 5888
5912 5911 5910 5908 5907 5906 5905 5904 5902 5901 5900 5899 5897 5896 5895 5894 5892 5891 5890 5889 5889 5888 5888 5887 5886 5886 5885 5885 5884 5884 5884 5885 5885 5885 5885 5885 5886 5886 5886 5886 5886 5886 5886
5913 5912 5910 5909 5908 5906 5905 5904 5903 5902 5901 5899 5898 5896 5895 5894 5892 5891 5890 5889 5888 5887 5886 5885 5885 5884 5883 5883 5882 5882 5882 5882 5882 5882 5883 5883 5883 5884 5884 5884 5884 5884 5884
5913 5912 5911 5909 5908 5907 5906 5905 5903 5902 5901 5900 5898 5897 5895 5894 5893 5891 5890 5889 5888 5887 5885 5884 5883 5883 5882 5882 5881 5880 5880 5880 5880 5880 5880 5880 5881 5881 5882 5882 5882 5882 5882
5914 5913 5911 5910 5909 5908 5906 5905 5904 5902 5901 5900 5898 5897 5895 5894 5893 5891 5890 5889 5887 5886 5884 5883 5883 5882 5881 5880 5879 5878 5878 5878 5877 5878 5877 5877 5878 5878 5879 5879 5879 5880 5880
5915 5913 5912 5911 5909 5908 5907 5905 5904 5902 5901 5899 5898 5897 5896 5894 5892 5891 5889 5888 5887 5885 5884 5883 5881 5880 5878 5877 5876 5876 5876 5875 5875 5875 5875 5875 5875 5875 5875 5875 5876 5876 5876
5915 5914 5912 5911 5909 5908 5907 5905 5903 5902 5901 5899 5898 5897 5895 5894 5892 5890 5889 5887 5886 5884 5883 5881 5880 5878 5877 5876 5875 5874 5873 5873 5873 5872 5872 5872 5871 5872 5872 5872 5873 5873 5873
5915 5914 5912 5911 5910 5908 5907 5905 5903 5902 5900 5899 5898 5896 5894 5893 5891 5889 5887 5886 5885 5883 5882 5880 5879 5877 5876 5874 5873 5872 5871 5871 5871 5869 5869 5869 5869 5869 5869 5869 5869 5869 5869
5915 5913 5912 5910 5909 5907 5906 5905 5903 5902 5900 5899 5897 5896 5894 5892 5890 5888 5886 5885 5883 5882 5880 5878 5877 5875 5874 5873 5872 5870 5870 5870 5869 5868 5868 5867 5866 5866 5866 5865 5866 5865 5865
5914 5912 5911 5909 5908 5906 5905 5903 5902 5900 5899 5897 5896 5894 5893 5891 5889 5887 5885 5883 5882 5880 5878 5877 5875 5873 5872 5870 5870 5869 5868 5867 5867 5867 5865 5864 5864 5863 5862 5861 5861 5861 5860
5913 5911 5910 5908 5906 5905 5903 5902 5900 5899 5897 5895 5894 5893 5891 5889 5887 5886 5884 5882 5880 5878 5876 5874 5873 5871 5870 5868 5867 5866 5865 5864 5864 5863 5862 5861 5860 5859 5858 5857 5857 5856 5856
5911 5910 5908 5906 5905 5903 5901 5900 5898 5897 5895 5893 5892 5890 5889 5887 5885 5884 5882 5880 5878 5876 5874 5873 5871 5869 5867 5866 5865 5863 5863 5862 5860 5860 5859 5858 5856 5855 5854 5853 5853 5852 5851
5910 5908 5906 5905 5903 5901 5900 5898 5896 5894 5892 5891 5890 5888 5886 5884 5883 5881 5879 5878 5876 5874 5872 5870 5868 5866 5864 5862 5861 5860 5859 5858 5857 5856 5855 5854 5852 5851 5850 5849 5848 5847 5846